SCP
0 0 0 0 0 0 0 0 0 0 0 0 0 0 0 0 0 0 0 0 0 0 0 0 0 0 0 0 0 0 0 0 0 0 0 0 0 0 0 0 0 0 0 0
0 0 0 0 0 0 0 0 0 0 0 0 0 0 0 0 0 0 0 0 0 0 0 0 0 0 0 0 0 0 0 0 0 0 0 0 0 0 0 0 0 0 0 0
0 0 0 0 0 0 0 0 0 0 0 0 0 0 0 0 0 0 0 0 0 0 0 0 0 0 0 0 0 0 0 0 0 0 0 0 0 0 0 0 0 0 0 0
0 0 0 0 0 0 0 0 0 0 0 0 0 0 0 0 0 0 0 0 0 0 0 0 0 0 0 0 0 0 0 0 0 0 0 0 0 0 0 0 0 0 0 0
0 0 0 0 0 0 0 0 0 0 0 0 0 0 0 0 0 0 0 0 0 0 0 0 0 0 0 0 0 0 0 0 0 0 0 0 0 0 0 0 0 0 0 0
0 0 0 0 0 0 0 0 0 0 0 0 0 0 0 0 0 0 0 0 0 0 0 0 0 0 0 0 0 0 0 0 0 0 0 0 0 0 0 0 0 0 0 0
0 0 0 0 0 0 0 0 0 0 0 0 0 0 0 0 0 0 0 0 0 0 0 0 0 0 0 0 0 0 0 1 0 0 0 0 0 0 0 0 0 0 0 0
0 0 0 0 0 0 0 0 0 0 0 0 0 0 0 0 0 0 0 0 0 0 0 0 0 0 0 0 0 1 1 1 1 0 0 0 0 0 0 0 0 0 0 0
0 0 0 0 0 0 0 0 0 0 0 0 0 0 0 0 0 0 0 0 0 0 0 0 0 0 0 0 0 1 1 1 1 1 1 0 0 0 0 0 0 0 0 0
0 0 0 0 0 0 0 0 0 0 0 0 0 0 0 0 0 0 0 0 0 0 0 0 0 0 0 0 0 1 1 1 1 1 1 1 1 0 0 0 0 0 0 0
0 0 0 0 0 0 0 0 0 0 0 0 0 0 0 0 0 0 0 0 0 0 0 0 0 0 0 0 0 0 1 1 1 1 1 1 1 0 0 0 0 0 0 0
0 0 0 0 0 0 0 0 0 0 0 0 0 0 0 0 0 0 0 0 0 0 0 0 0 0 0 0 0 0 1 1 1 1 1 1 1 1 0 0 0 0 0 0
0 0 0 0 0 0 0 0 0 0 0 0 0 0 0 0 0 0 0 0 0 0 0 0 0 0 0 0 0 0 0 0 0 1 1 1 1 1 1 1 0 0 0 0
0 0 0 0 0 0 0 0 0 0 0 0 0 0 0 0 0 0 0 0 0 0 0 0 0 0 0 0 0 0 0 0 0 1 1 1 1 1 1 1 1 1 1 1
0 0 0 0 0 0 0 0 0 0 0 0 0 0 0 0 0 0 0 0 0 0 0 0 0 0 1 1 0 0 0 0 1 1 1 1 1 1 1 1 1 1 1 1
0 0 0 0 0 0 0 0 0 0 0 0 0 0 0 0 0 0 0 0 0 0 0 1 1 1 1 1 1 1 1 1 1 1 1 1 1 1 1 1 1 1 1 1
0 0 0 0 0 0 0 0 0 0 0 0 0 0 0 0 0 0 0 0 0 0 0 1 1 1 1 1 1 1 1 1 1 1 1 1 1 1 1 1 1 1 1 1
0 0 0 0 0 0 0 0 0 0 0 0 0 0 0 0 0 0 0 0 0 0 0 1 1 1 1 1 1 1 1 1 1 1 1 1 1 1 1 1 1 1 1 1
0 0 0 0 0 0 0 0 0 0 0 0 0 0 0 0 0 0 0 0 0 1 1 1 1 1 1 1 1 1 1 1 1 1 1 1 1 1 1 1 1 1 1 1
0 0 0 0 0 0 0 0 0 0 0 0 0 0 0 0 0 0 0 0 1 1 1 1 1 1 1 1 1 1 1 1 1 1 1 1 1 1 1 1 1 1 1 1
0 0 0 0 0 0 0 0 0 0 0 0 0 0 1 1 1 1 1 1 1 1 1 1 1 1 1 1 1 2 2 1 1 1 1 1 1 1 1 1 1 1 1 1
0 0 0 0 0 0 0 0 0 0 0 0 0 1 1 1 1 1 1 1 1 1 1 1 1 1 1 1 1 1 1 1 1 1 1 1 1 1 1 1 1 1 1 1
0 0 0 0 0 0 0 0 0 0 0 0 0 1 1 1 1 1 1 1 1 1 1 1 1 1 1 1 1 1 1 1 1 1 1 1 1 1 1 1 1 1 1 1
0 0 0 0 0 0 0 0 0 0 0 0 0 1 1 1 1 1 1 1 1 1 1 1 1 1 1 1 1 1 1 1 1 1 1 1 1 1 1 1 1 1 1 1
0 0 0 0 0 0 0 0 0 0 0 0 1 1 1 1 1 1 1 1 1 1 1 1 1 1 1 1 1 1 1 1 1 1 1 1 1 1 1 1 1 1 0 0
0 0 0 0 0 0 0 0 0 0 0 0 1 1 1 1 1 1 1 1 1 1 1 1 1 1 1 1 1 1 1 1 1 1 1 1 1 1 1 1 1 0 0 0
Wind_Speed
8 9 8 5 5 3 2 2 2 3 4 4 3 2 5 8 9 9 9 9 9 8 8 8 8 8 8 7 7 6 6 5 4 3 3 3 2 2 1 1 2 1 0 0
9 9 5 4 5 6 6 5 4 4 4 3 2 2 3 7 9 8 9 9 9 10 9 9 9 9 8 8 7 7 7 6 6 3 2 1 1 1 1 1 1 1 1 2
10 4 5 6 8 8 7 6 4 3 5 6 5 4 5 6 7 8 8 8 9 10 10 11 10 10 9 9 8 7 7 6 6 5 4 3 2 2 2 2 2 1 2 2
8 4 6 9 8 9 7 4 4 5 6 4 5 3 5 6 7 8 9 9 10 9 10 11 11 11 10 9 8 8 7 7 6 6 5 5 3 3 2 2 1 1 2 2
7 7 8 8 6 7 4 3 5 6 7 6 5 5 3 6 5 7 9 10 9 10 10 11 12 11 10 10 9 8 8 7 7 6 6 5 5 3 2 2 2 2 2 2
6 5 6 5 4 5 5 6 6 8 8 7 5 6 2 4 4 4 7 9 9 10 10 10 11 10 10 9 9 9 8 8 7 7 7 6 5 4 3 3 2 2 2 2
9 8 6 6 8 9 10 9 7 8 7 5 4 6 2 1 2 3 5 7 9 9 10 10 10 11 10 11 10 9 9 9 8 8 7 7 6 6 5 4 3 3 2 2
11 11 9 8 9 8 11 11 8 7 6 4 7 5 1 1 2 3 5 6 7 9 10 10 11 11 10 11 10 10 9 9 9 8 7 7 7 5 4 5 4 3 3 2
8 7 6 5 6 8 9 10 8 9 9 8 5 4 5 4 5 6 6 7 7 8 9 10 11 11 11 10 10 10 10 9 9 8 8 7 7 6 5 5 5 4 3 2
5 6 7 6 7 5 8 7 8 9 8 9 7 7 4 6 7 7 7 6 7 7 8 9 9 10 10 10 10 10 9 9 9 8 7 6 7 7 6 5 5 3 3 2
7 8 7 9 9 8 9 10 8 8 9 10 7 3 1 5 5 6 6 6 6 7 7 8 8 9 9 9 9 9 9 9 8 7 7 6 6 6 6 6 5 5 4 4
6 8 7 8 3 4 7 8 10 9 8 9 9 3 3 3 4 4 4 4 5 5 6 7 7 8 8 9 9 8 8 8 7 6 6 6 5 5 6 6 5 5 5 4
4 7 9 9 9 8 8 7 9 9 8 9 10 4 4 4 4 3 3 4 4 5 5 6 6 7 7 8 8 8 7 7 7 6 6 6 6 6 5 5 5 5 5 4
6 7 10 9 3 6 8 8 9 10 9 9 10 6 4 4 3 3 3 4 4 5 5 6 6 6 7 7 7 7 7 7 6 6 6 6 6 5 5 5 5 5 5 5
5 7 8 7 4 5 8 8 10 12 11 11 8 7 4 3 2 2 3 3 4 4 5 6 6 6 6 7 7 7 7 6 6 6 6 6 5 5 5 5 5 5 5 5
3 5 7 8 7 8 9 9 10 10 10 11 9 6 1 1 1 1 1 3 4 4 4 5 6 6 6 6 7 7 6 6 7 7 6 6 5 5 5 5 5 5 4 4
4 5 7 9 7 9 11 9 9 8 7 8 8 3 1 2 1 1 0 1 1 2 3 3 4 5 5 6 6 6 6 6 6 6 6 6 6 5 5 5 5 5 4 4
5 6 6 7 7 12 3 0 4 5 3 3 3 2 2 2 1 2 2 1 1 1 1 2 3 3 4 5 5 5 5 6 6 6 5 5 6 6 5 5 5 5 4 4
6 7 7 8 10 9 4 2 3 6 4 1 2 2 1 1 3 4 3 3 3 2 1 1 2 2 3 4 5 5 5 5 5 5 5 5 5 5 5 5 5 4 4 3
6 7 8 8 10 9 3 2 2 6 5 1 2 2 2 2 4 2 4 4 3 3 2 0 0 1 3 3 5 6 5 5 5 4 4 4 5 5 5 5 5 4 4 4
9 8 10 10 10 5 1 1 4 7 1 2 2 2 2 2 3 3 3 3 2 2 2 1 1 2 2 3 5 5 5 4 4 4 4 4 5 5 5 4 4 4 4 4
8 8 8 8 10 5 3 1 2 3 3 2 2 2 2 2 2 2 3 3 3 2 2 1 1 1 2 3 4 4 4 4 4 4 4 4 4 4 4 4 4 4 4 4
6 4 3 4 2 3 2 2 3 2 1 2 2 2 2 1 1 2 3 4 4 3 3 2 1 1 1 3 4 5 4 4 4 4 5 4 4 4 4 4 5 4 4 4
4 3 4 4 3 1 0 1 1 2 2 2 2 2 2 2 2 3 3 3 4 4 3 2 1 0 0 1 3 4 3 4 5 5 5 5 5 5 4 4 4 4 4 4
3 4 5 6 4 3 3 2 2 2 2 2 2 2 2 2 2 3 3 4 4 4 4 3 2 2 2 2 3 3 3 4 4 4 4 5 5 4 4 4 3 5 4 3
6 6 7 5 3 4 3 2 3 3 3 2 2 3 3 3 3 3 3 3 4 4 4 4 4 3 3 3 3 3 3 4 4 5 4 4 3 3 4 3 3 1 2 2
Wind_Direction
199 220 220 212 238 282 260 230 172 129 144 196 198 197 163 170 184 183 179 179 180 185 180 178 180 180 177 178 178 185 187 178 187 189 194 182 176 177 166 165 136 180 231 202
207 220 225 223 220 232 231 231 196 153 159 221 206 199 170 182 194 195 190 189 185 182 178 177 182 184 186 185 188 190 193 189 195 189 201 200 187 191 174 165 145 218 232 247
223 202 183 207 207 219 227 238 225 181 173 201 228 192 177 178 195 197 198 197 194 187 184 181 186 190 190 190 193 195 196 192 199 192 198 190 186 208 181 187 185 209 238 247
223 195 198 216 217 225 224 224 228 202 221 202 242 238 160 172 185 197 198 198 197 190 190 187 186 190 193 192 190 193 194 197 198 198 207 210 209 207 198 221 191 215 240 257
202 199 209 220 222 224 230 197 211 221 242 246 224 261 163 168 193 194 195 196 196 193 191 188 188 189 193 192 190 188 190 194 195 200 201 212 219 211 202 213 195 239 229 237
214 200 227 226 208 202 168 175 200 228 244 243 243 259 212 179 208 196 185 192 193 190 189 189 188 187 192 191 191 189 186 190 193 198 204 213 221 225 226 230 224 229 214 214
201 197 191 197 187 186 206 216 219 221 224 234 218 247 252 167 193 207 189 184 188 189 188 188 189 187 191 191 191 191 187 191 195 198 203 209 215 219 222 233 223 242 235 216
206 198 192 204 223 213 217 238 254 264 260 231 201 231 197 179 187 196 190 182 182 187 189 190 190 189 190 190 190 190 189 194 197 200 204 210 214 220 222 221 244 237 255 256
218 198 170 198 229 236 219 235 260 265 267 265 225 211 198 197 196 194 187 178 180 184 188 190 190 189 190 189 188 190 189 193 197 200 203 206 211 222 229 222 228 239 241 240
240 213 184 180 197 219 256 240 232 247 260 255 236 229 212 199 203 191 189 181 174 182 186 187 188 189 189 189 187 191 189 191 197 200 204 204 208 213 221 228 225 233 235 242
234 225 193 196 216 211 205 218 241 250 260 265 255 230 170 194 195 194 184 178 174 182 184 184 185 185 185 187 186 187 191 190 194 202 204 211 206 208 212 217 218 216 220 220
228 238 222 211 199 270 236 235 229 239 240 257 269 249 120 154 175 188 180 174 176 186 184 181 180 179 182 186 189 187 191 191 193 195 199 203 205 205 208 209 213 215 214 213
212 231 219 203 192 197 219 223 235 245 248 253 256 227 139 144 175 180 183 182 178 188 186 176 174 175 181 183 185 186 189 191 192 190 194 196 201 203 208 210 206 207 208 210
245 234 247 250 229 193 208 214 224 235 242 246 251 248 189 191 198 192 201 204 186 179 181 177 172 174 178 181 183 186 189 191 190 190 194 193 197 200 204 205 201 200 203 205
246 230 236 258 264 244 231 226 224 234 251 263 258 249 226 204 219 212 211 206 193 181 180 177 177 178 179 181 184 187 188 186 187 188 194 194 195 194 197 198 198 197 203 204
258 243 233 232 231 235 239 235 233 237 247 254 257 255 311 213 221 227 212 204 197 193 190 184 180 181 183 184 184 184 185 185 186 190 192 189 192 192 193 196 192 192 197 202
225 233 235 230 217 236 233 227 228 230 240 254 252 266 347 223 243 263 210 183 203 207 199 197 199 193 188 188 186 184 180 181 186 191 190 189 193 196 197 197 189 191 194 195
238 240 240 239 227 237 228 232 234 225 225 271 301 331 288 251 202 98 72 36 327 278 230 215 213 199 192 184 180 182 174 175 183 189 191 190 192 193 192 193 190 192 196 198
228 233 238 235 231 229 201 184 237 237 212 306 294 319 334 256 187 139 61 15 358 341 289 256 228 197 183 176 170 169 173 174 179 188 195 196 196 194 192 193 193 192 194 199
194 226 238 228 239 238 181 113 293 249 210 57 341 344 335 263 230 93 25 3 2 0 353 328 147 149 160 167 167 171 175 174 182 187 193 194 197 201 201 194 192 190 194 204
194 208 227 233 238 234 57 359 238 235 157 50 358 353 323 330 346 19 354 360 9 6 10 24 99 130 150 159 164 173 175 185 191 187 188 191 196 201 197 189 190 193 198 202
218 212 216 229 236 220 66 193 257 19 33 28 14 356 349 18 43 24 14 10 9 7 10 17 79 111 148 164 170 180 189 192 190 186 186 189 192 202 189 184 191 199 201 202
239 270 253 246 266 52 53 38 34 356 352 359 1 358 2 14 20 12 3 359 359 358 360 356 44 97 145 175 187 193 196 190 185 186 185 186 189 196 197 193 193 200 205 216
201 255 249 235 203 202 250 335 331 312 309 325 331 336 342 347 352 349 345 349 351 351 348 346 351 11 89 205 214 214 203 188 187 190 191 189 191 196 197 202 202 210 219 223
250 231 236 240 240 239 230 260 299 303 299 318 339 343 336 332 331 335 336 342 340 341 340 336 325 315 308 270 235 228 214 196 198 200 203 204 199 194 200 209 216 219 220 229
237 244 250 255 245 256 247 266 281 279 279 294 311 320 319 315 316 321 326 332 334 333 331 323 314 310 310 299 260 238 215 205 209 211 211 214 213 201 210 209 211 127 206 163